North Myrtle Beach, SC

6:45 AM EST on February 13, 2016 (GMT -0500)
Grand Strand

Weather History for KCRE - October, 2012

Change the Weather History Date:

Tuesday, October 23, 2012

  Actual Average Record
Temperature  
Mean Temperature 61 °F 63 °F  
Max Temperature 75 °F 73 °F 82 °F (2007)
Min Temperature 46 °F 53 °F 36 °F (1954)
Degree Days  
Heating Degree Days 4 4  
Month to date heating degree days 52 46  
Since 1 July heating degree days 52 50  
Cooling Degree Days 0 2  
Month to date cooling degree days 82 84  
Year to date cooling degree days 2083 1868  
Growing Degree Days 10 (Base 50)    
Moisture  
Dew Point 52 °F    
Average Humidity 73    
Maximum Humidity 100    
Minimum Humidity 46    
Precipitation  
Precipitation 0.00 in 0.09 in 0.06 in (2013)
Month to date precipitation 1.25 3.10  
Year to date precipitation 32.59 44.73  
Sea Level Pressure  
Sea Level Pressure 30.17 in    
Wind  
Wind Speed 2 mph (SE)    
Max Wind Speed 9 mph    
Max Gust Speed 12 mph    
Visibility 8 miles    
Events      
T = Trace of Precipitation, MM = Missing Value Source: NWS Daily Summary

Daily Weather History Graph

Daily Weather History Graph

Search for Another Location

Airport or City:

Trip Planner

Search our weather history database for the weather conditions in past years. The results will help you decide how hot, cold, wet, or windy it might be!

Date:

Astronomy

Oct. 23, 2012 Rise Set
Actual Time 7:26 AM EDT 6:31 PM EDT
Civil Twilight 7:01 AM EDT 6:56 PM EDT
Nautical Twilight 6:32 AM EDT 7:25 PM EDT
Astronomical Twilight 6:03 AM EDT 7:54 PM EDT
Moon 2:59 PM EDT (10/23) 1:33 AM EDT (10/23)
Length of Visible Light 11h 55m
Length of Day
11h 04m
Waxing Gibbous, 66% of the Moon is Illuminated
Oct 23
Waxing Gibbous
Oct 29
Full
Nov 6
Last Quarter
Nov 13
New
Nov 20
First Quarter

Hourly Weather History & Observations

Time (EDT) Temp. Dew Point Humidity Pressure Visibility Wind Dir Wind Speed Gust Speed Precip Events Conditions
12:53 AM 50.0 °F 48.9 °F 96% 30.19 in 7.0 mi Calm Calm - N/A   Clear
1:53 AM 48.9 °F 48.0 °F 97% 30.18 in 7.0 mi Calm Calm - N/A   Clear
2:53 AM 48.0 °F 46.9 °F 96% 30.17 in 6.0 mi Calm Calm - N/A   Clear
3:48 AM 46.4 °F 46.4 °F 100% 30.16 in 2.5 mi Calm Calm - 0.01 in   Clear
3:53 AM 48.0 °F 46.9 °F 96% 30.17 in 4.0 mi Calm Calm - 0.01 in   Clear
4:53 AM 48.0 °F 46.9 °F 96% 30.17 in 9.0 mi Calm Calm - N/A   Clear
5:53 AM 46.9 °F 46.0 °F 97% 30.17 in 4.0 mi Calm Calm - N/A   Clear
6:53 AM 48.0 °F 46.9 °F 96% 30.18 in 9.0 mi Calm Calm - N/A   Clear
7:53 AM 48.9 °F 46.9 °F 93% 30.19 in 10.0 mi Calm Calm - N/A   Clear
8:53 AM 57.9 °F 52.0 °F 81% 30.21 in 10.0 mi NE 3.5 mph - N/A   Clear
9:53 AM 64.9 °F 54.0 °F 68% 30.22 in 10.0 mi NNE 5.8 mph - N/A   Clear
11:53 AM 72.0 °F 52.0 °F 49% 30.21 in 10.0 mi Variable 4.6 mph - N/A   Clear
1:53 PM 73.0 °F 53.1 °F 49% 30.15 in 10.0 mi SE 6.9 mph - N/A   Clear
2:53 PM 73.9 °F 53.1 °F 48% 30.14 in 10.0 mi SSE 6.9 mph - N/A   Clear
3:53 PM 73.0 °F 52.0 °F 48% 30.13 in 10.0 mi Variable 4.6 mph - N/A   Clear
4:53 PM 72.0 °F 54.0 °F 53% 30.13 in 10.0 mi South 5.8 mph - N/A   Clear
5:53 PM 70.0 °F 55.9 °F 61% 30.13 in 10.0 mi SSE 5.8 mph - N/A   Clear
6:53 PM 68.0 °F 57.0 °F 68% 30.15 in 10.0 mi SSE 3.5 mph - N/A   Clear
7:53 PM 60.1 °F 57.0 °F 90% 30.16 in 10.0 mi Calm Calm - N/A   Clear
8:53 PM 57.0 °F 55.9 °F 96% 30.16 in 10.0 mi Calm Calm - N/A   Clear
9:53 PM 57.0 °F 55.9 °F 96% 30.17 in 7.0 mi Calm Calm - N/A   Clear
10:53 PM 57.0 °F 55.9 °F 96% 30.17 in 8.0 mi Calm Calm - N/A   Clear
11:53 PM 69.1 °F 63.0 °F 81% 30.17 in 10.0 mi SSE 4.6 mph - N/A   Clear